Change the Weather History Date:

Tuesday, July 17, 2012

  Actual Average Record
Temperature  
Mean Temperature 88 °F 79 °F  
Max Temperature 100 °F 91 °F 111 °F (1936)
Min Temperature 76 °F 68 °F 54 °F (1900)
Degree Days  
Heating Degree Days 0 0  
Month to date heating degree days 0 0  
Since 1 June heating degree days 13 13  
Since 1 July heating degree days 0 0  
Cooling Degree Days 23 14  
Month to date cooling degree days 300 234  
Year to date cooling degree days 943 588  
Since 1 June cooling degree days 699 499  
Growing Degree Days 38 (Base 50)    
Moisture  
Dew Point 60 °F    
Average Humidity 43    
Maximum Humidity 62    
Minimum Humidity 24    
Precipitation  
Precipitation T in 0.13 in 3.57 in (1972)
Month to date precipitation 0.60 2.35  
Year to date precipitation 14.29 16.39  
Snow  
Snow 0.00 in 0.00 in T in (1972)
Month to date snowfall 0.0 0.0  
Year to date snowfall 5.8 13.7  
Since 1 July snowfall 0.0 0.0  
Snow Depth 0.00 in    
Sea Level Pressure  
Sea Level Pressure 29.75 in    
Wind  
Wind Speed 14 mph (South)    
Max Wind Speed 30 mph    
Max Gust Speed 38 mph    
Visibility 10 miles    
Events      
T = Trace of Precipitation, MM = Missing Value Source: NWS Daily Summary

Daily Weather History Graph

Daily Weather History Graph

Search for Another Location

Airport or City:

Trip Planner

Search our weather history database for the weather conditions in past years. The results will help you decide how hot, cold, wet, or windy it might be!

Date:

Astronomy

Jul. 17, 2012 Rise Set
Actual Time 6:17 AM CDT 8:55 PM CDT
Civil Twilight 5:46 AM CDT 9:26 PM CDT
Nautical Twilight 5:07 AM CDT 10:05 PM CDT
Astronomical Twilight 4:23 AM CDT 10:49 PM CDT
Moon 4:55 AM CDT (7/17) 7:46 PM CDT (7/17)
Length of Visible Light 15h 40m
Length of Day
14h 37m
Waning Crescent, 2% of the Moon is Illuminated
Jul 17
Waning Crescent
Jul 18
New
Jul 26
First Quarter
Aug 1
Full
Aug 9
Last Quarter

Hourly Weather History & Observations

Time (CDT) Temp. Heat Index Dew Point Humidity Pressure Visibility Wind Dir Wind Speed Gust Speed Precip Events Conditions
12:55 AM 82.0 °F 82.1 °F 59.0 °F 45% 29.78 in 10.0 mi South 13.8 mph - N/A   Clear
1:55 AM 81.0 °F 81.3 °F 59.0 °F 47% 29.78 in 10.0 mi South 15.0 mph - N/A   Clear
2:55 AM 79.0 °F - 60.1 °F 52% 29.77 in 10.0 mi South 15.0 mph - N/A   Clear
3:55 AM 79.0 °F - 61.0 °F 54% 29.76 in 10.0 mi South 16.1 mph - N/A   Clear
4:55 AM 78.1 °F - 62.1 °F 58% 29.76 in 10.0 mi South 17.3 mph - N/A   Clear
5:55 AM 77.0 °F - 62.1 °F 60% 29.76 in 10.0 mi South 18.4 mph 26.5 mph N/A   Clear
6:55 AM 77.0 °F - 63.0 °F 62% 29.77 in 10.0 mi South 16.1 mph - N/A   Clear
7:55 AM 78.1 °F - 64.0 °F 62% 29.78 in 10.0 mi South 17.3 mph 25.3 mph N/A   Clear
8:55 AM 82.0 °F 83.1 °F 63.0 °F 52% 29.78 in 10.0 mi South 16.1 mph - N/A   Clear
9:55 AM 84.9 °F 85.9 °F 63.0 °F 48% 29.79 in 10.0 mi South 15.0 mph 23.0 mph N/A   Clear
10:55 AM 89.1 °F 90.3 °F 64.0 °F 43% 29.79 in 10.0 mi SSW 11.5 mph - N/A   Clear
11:55 AM 91.9 °F 92.9 °F 63.0 °F 38% 29.79 in 10.0 mi South 12.7 mph 18.4 mph N/A   Clear
12:55 PM 95.0 °F 94.4 °F 59.0 °F 30% 29.78 in 10.0 mi SSW 9.2 mph 18.4 mph N/A   Clear
1:55 PM 97.0 °F 95.7 °F 57.0 °F 26% 29.76 in 10.0 mi South 10.4 mph 23.0 mph N/A   Clear
2:55 PM 100.0 °F 99.2 °F 57.0 °F 24% 29.74 in 10.0 mi SSW 12.7 mph 23.0 mph N/A   Clear
3:55 PM 100.0 °F 99.2 °F 57.0 °F 24% 29.73 in 10.0 mi South 8.1 mph 21.9 mph N/A   Clear
4:55 PM 100.0 °F 99.7 °F 57.9 °F 25% 29.72 in 10.0 mi South 16.1 mph 20.7 mph N/A   Clear
5:55 PM 99.0 °F 98.1 °F 57.9 °F 25% 29.71 in 10.0 mi South 15.0 mph 20.7 mph N/A   Clear
6:55 PM 97.0 °F 96.5 °F 59.0 °F 28% 29.70 in 10.0 mi South 13.8 mph 20.7 mph N/A   Clear
7:55 PM 95.0 °F 94.4 °F 59.0 °F 30% 29.70 in 10.0 mi SSE 11.5 mph - N/A   Clear
8:55 PM 89.1 °F 88.2 °F 59.0 °F 36% 29.71 in 10.0 mi SSE 8.1 mph - N/A   Clear
9:55 PM 88.0 °F 86.9 °F 57.9 °F 36% 29.72 in 10.0 mi SSE 10.4 mph - N/A   Clear
10:55 PM 87.1 °F 86.1 °F 57.9 °F 37% 29.75 in 10.0 mi South 11.5 mph - N/A   Clear
11:55 PM 86.0 °F 84.9 °F 57.0 °F 37% 29.75 in 10.0 mi South 11.5 mph - N/A   Clear